User: anonymous   Login
Location: Unspecified
(0.0000°N, 0.0000°E)
Time: 18:22:24
(UTC+00:00)
Language:

Tiangong 1 - Orbit

View from above orbital plane
View from above orbital plane
View from above satellite
View from above satellite

Ground track
Ground track

The orbit data is extracted from the following two-line orbital elements,

1 37820U 11053A   16339.16302693  .00021051  00000-0  17357-3 0  9997
2 37820  42.7632 305.9790 0015673 147.2225 332.7571 15.69763185297236
Epoch (UTC): 04 December 2016 03:54:45
Eccentricity: 0.0015673
inclination: 42.7632°
perigee height: 349 km
apogee height: 370 km
right ascension of ascending node: 305.9790°
argument of perigee: 147.2225°
revolutions per day: 15.69763185
mean anomaly at epoch: 332.7571°
orbit number at epoch: 29723

The dashed part of the orbit path shows where the satellite is in the earth's shadow,  

DLR